Location: Ergnies
(50.0854°N, 2.0375°E)
Time: 06:52:58
(UTC+00:00)

COSMOS 2406 - Pass Details

Date: 14 January 2026
Orbit: 843 x 861 km, 71.0° (Epoch: 10 February)

Event Time Altitude Azimuth Distance (km) Brightness Sun altitude
Exits shadow 06:43:59 - 330° (NNW) 2,967 5.6 -9.6°
Reaches altitude 10° 06:45:13 10° 330° (NNW) 2,496 5.2 -9.4°
Maximum altitude 06:50:58 83° 244° (WSW) 871 3.3 -8.6°
Drops below altitude 10° 06:56:42 10° 157° (SSE) 2,490 6.4 -7.7°
Sets 06:59:09 0° 156° (SSE) 3,424 7.2 -7.4°
